Location: Oshawa
(43.9000°N, 78.8670°W)
Time: 09:58:33
(UTC-04:00)

S-56A Canister/Altair - All Passes

Search period start: 29 April 2016 00:00
Search period end: 09 May 2016 00:00
Orbit: 639 x 2496 km, 38.9° (Epoch: 25 April)

Date Brightness Start Highest point End Pass type
(mag) Time Alt. Az. Time Alt. Az. Time Alt. Az.
29 Apr - 00:08:18 10° WSW 00:15:09 16° SW 00:22:42 10° SSW visible
29 Apr - 15:19:56 10° SSW 15:24:43 27° SE 15:31:06 10° E daylight
29 Apr - 17:21:23 10° WSW 17:27:58 59° SSE 17:38:01 10° E daylight
29 Apr - 19:24:23 10° W 19:32:34 63° S 19:44:50 10° ESE daylight
29 Apr - 21:28:17 10° W 21:37:38 42° SSW 21:50:12 10° SE visible
29 Apr - 23:34:59 10° W 23:42:22 18° SW 23:50:45 10° S visible
30 Apr - 14:48:24 10° S 14:52:34 22° SE 14:57:53 10° E daylight
30 Apr - 16:49:26 10° WSW 16:55:33 55° SSE 17:04:47 10° E daylight
30 Apr - 18:52:16 10° W 18:59:54 63° S 19:11:30 10° ESE daylight
30 Apr - 20:55:56 10° W 21:04:50 43° SSW 21:17:09 10° SE visible
30 Apr - 23:01:57 10° W 23:09:36 20° SW 23:18:33 10° S visible
01 May - 14:16:59 10° S 14:20:28 17° SE 14:24:37 10° E daylight
01 May - 16:17:30 10° SW 16:23:11 50° SSE 16:31:36 10° E daylight
01 May - 18:20:11 10° W 18:27:18 63° S 18:38:12 10° ESE daylight
01 May - 20:23:39 10° W 20:32:04 45° SSW 20:44:02 10° SE daylight
01 May - 22:29:06 10° W 22:36:50 22° SW 22:46:10 10° S visible
02 May - 13:45:50 10° SSE 13:48:22 14° SE 13:51:13 10° ESE daylight
02 May - 15:45:38 10° SW 15:50:55 45° SSE 15:58:31 10° E daylight
02 May - 17:48:09 10° W 17:54:46 62° S 18:04:57 10° ESE daylight
02 May - 19:51:27 10° W 19:59:22 47° SSW 20:10:54 10° SE daylight
02 May - 21:56:25 10° W 22:04:05 23° SW 22:13:38 10° S visible
03 May - 13:15:42 10° SE 13:16:17 10° SE 13:16:54 10° SE daylight
03 May - 15:13:47 10° SW 15:18:41 40° SSE 15:25:29 10° E daylight
03 May - 17:16:07 10° WSW 17:22:19 61° S 17:31:44 10° ESE daylight
03 May - 19:19:17 10° W 19:26:44 48° SSW 19:37:44 10° SE daylight
03 May - 21:23:51 10° W 21:31:23 25° SSW 21:41:00 10° SSE visible
04 May - 14:41:57 10° SW 14:46:30 34° SSE 14:52:32 10° E daylight
04 May - 16:44:09 10° WSW 16:49:55 59° S 16:58:36 10° E daylight
04 May - 18:47:10 10° W 18:54:09 49° SSW 19:04:35 10° SE daylight
04 May - 20:51:25 10° W 20:58:42 27° SSW 21:08:16 10° SSE visible
05 May - 14:10:10 10° SSW 14:14:21 29° SSE 14:19:39 10° E daylight
05 May - 16:12:10 10° WSW 16:17:35 57° S 16:25:32 10° E daylight
05 May - 18:15:06 10° W 18:21:39 50° SSW 18:31:27 10° ESE daylight
05 May - 20:19:03 10° W 20:26:03 28° SSW 20:35:28 10° SSE daylight
06 May - 13:38:25 10° SSW 13:42:15 25° SSE 13:46:50 10° E daylight
06 May - 15:40:13 10° WSW 15:45:18 54° S 15:52:34 10° E daylight
06 May - 17:43:04 10° W 17:49:11 51° S 17:58:21 10° ESE daylight
06 May - 19:46:47 10° W 19:53:28 29° SSW 20:02:37 10° SSE daylight
07 May - 13:06:44 10° SSW 13:10:09 21° SSE 13:14:03 10° E daylight
07 May - 15:08:15 10° WSW 15:13:04 50° S 15:19:40 10° E daylight
07 May - 17:11:02 10° W 17:16:47 52° S 17:25:18 10° ESE daylight
07 May - 19:14:34 10° W 19:20:55 30° SSW 19:29:45 10° SSE daylight
07 May - 21:23:01 10° SW 21:25:11 11° SW 21:27:29 10° SSW visible
08 May - 12:35:05 10° S 12:38:04 17° SSE 12:41:16 10° ESE daylight
08 May - 14:36:19 10° WSW 14:40:52 46° SSE 14:46:52 10° E daylight
08 May - 16:39:02 10° W 16:44:26 52° S 16:52:18 10° ESE daylight
08 May - 18:42:25 10° W 18:48:27 32° SSW 18:56:52 10° SSE daylight
08 May - 20:49:32 10° SW 20:52:37 12° SW 20:56:02 10° SSW visible
